Home   Weather   Fairfield   Past weeks
Flag for USA

Past Weather in Fairfield, Alabama, USA — Yesterday and Last 2 Weeks

Now
45 °F

Mostly cloudy.


Feels Like: 39 °F
Forecast: 52 / 46 °F
Wind: 14 mph from East

Location: Birmingham International Airport

Current Time: Dec 12, 2019 at 8:38:12 pm

Latest Report: Dec 12, 2019 at 7:53 pm


Visibility: 10 mi

Pressure: 30.29 "Hg

Humidity: 76%

Dew Point: 38 °F

Location of FairfieldLocation

Past Weather in Fairfield — Graph

°F

Fairfield Temperature Yesterday

Maximum temperature yesterday: 51 °F (at 1:53 pm)
Minimum temperature yesterday: 30 °F (at 6:53 am)
Average temperature yesterday: 39 °F

High & Low Weather Summary for the Past Weeks

 TemperatureHumidityPressure
High74 °F (Nov 30, 11:53 am)93% (Dec 7, 2:53 am)30.55 "Hg (Dec 7, 2:53 am)
Low30 °F (Dec 11, 6:53 am)23% (Dec 5, 2:53 pm)29.66 "Hg (Nov 30, 11:53 pm)
Average52 °F64%30.12 "Hg
* Reported Nov 27 6:53 pm — Dec 12 6:53 pm, Fairfield. Weather by CustomWeather, © 2019

Note: Actual official high and low records may vary slightly from our data, if they occured in-between our weather recording intervals... More about our weather records

Fairfield Weather History for the Previous 24 Hours

Scroll right to see more
 ConditionsComfort  
Time TempWeatherWind HumidityBarometerVisibility
6:53 pm
Thu, Dec 12
45 °FOvercast.8 mph74%30.32 "Hg10 mi
5:53 pm46 °FOvercast.9 mph71%30.32 "Hg10 mi
4:53 pm50 °FOvercast.8 mph54%30.32 "Hg10 mi
4:28 pm51 °FOvercast.8 mph46%30.32 "Hg10 mi
3:53 pm51 °FOvercast.9 mph41%30.33 "Hg10 mi
2:53 pm52 °FOvercast.13 mph37%30.33 "Hg10 mi
1:53 pm53 °FOvercast.13 mph34%30.34 "Hg10 mi
12:53 pm54 °FCool.10 mph31%30.36 "Hg10 mi
11:53 am55 °FMostly cloudy.13 mph29%30.39 "Hg10 mi
10:53 am53 °FScattered clouds.9 mph34%30.43 "Hg10 mi
9:53 am49 °FPassing clouds.13 mph36%30.46 "Hg10 mi
8:53 am45 °FPassing clouds.14 mph40%30.46 "Hg10 mi
7:53 am43 °FPassing clouds.12 mph42%30.47 "Hg10 mi
6:53 am39 °FPassing clouds.8 mph50%30.47 "Hg10 mi
5:53 am36 °FClear.3 mph59%30.47 "Hg10 mi
4:53 am35 °FClear.5 mph64%30.48 "Hg10 mi
3:53 am34 °FClear.5 mph67%30.48 "Hg10 mi
2:53 am36 °FClear.6 mph62%30.48 "Hg10 mi
1:53 am36 °FClear.3 mph62%30.48 "Hg10 mi
12:53 am39 °FClear.7 mph53%30.48 "Hg10 mi
11:53 pm
Wed, Dec 11
38 °FClear.9 mph60%30.49 "Hg10 mi
10:53 pm34 °FClear.No wind76%30.51 "Hg10 mi
9:53 pm36 °FClear.No wind73%30.52 "Hg10 mi
8:53 pm36 °FClear.No wind73%30.53 "Hg10 mi
Weather by CustomWeather, © 2019

See weather overview

Advertising